Regional Weather Roundup
Issued by NWS

Home | Current Version | Previous Version | Text Only | Print | Product List | Glossary On
Versions: 1 2 3 4 5 6 7 8 9 10 11 12 13 14 15 16 17 18 19 20 21 22 23 24 25 26 27 28 29 30 31 32 33 34 35 36 37 38 39 40 41 42 43 44 45 46 47 48 49 50
752
ASUS46 KPQR 240710
RWROR

OREGON REGIONAL WEATHER ROUNDUP
NATIONAL WEATHER SERVICE PORTLAND OR
1200 AM PDT SUN JUL 24 2016

NOTE: "FAIR" INDICATES FEW OR NO CLOUDS BELOW 12,000 FEET WITH
NO SIGNIFICANT WEATHER AND/OR OBSTRUCTIONS TO VISIBILITY.

ORZ001>013-240800-
NORTHWEST OREGON


CITY           SKY/WX    TMP DP  RH WIND       PRES   REMARKS
ASTORIA        PTCLDY    60  54  80 W5        30.18F
NEWPORT        CLEAR     52  50  93 CALM      30.18F
PORTLAND       CLEAR     63  54  72 NW8       30.14F
VANCOUVER WA   CLEAR     63  54  72 NW8       30.14F
SCAPPOOSE      CLEAR     61  53  75 NW6       30.14S
HILLSBORO      CLEAR     59  54  83 NW9       30.15F
AURORA         CLEAR     61  53  75 N6        30.15F
MCMINNVILLE    CLEAR     61  51  70 CALM      30.15F
SALEM          CLEAR     63  52  67 N9        30.13F
CORVALLIS        N/A     64  52  63 N5        30.15S
EUGENE         CLEAR     61  52  72 N9        30.13S
$$

ORZ021-028-240800-
SOUTHWEST OREGON


CITY           SKY/WX    TMP DP  RH WIND       PRES   REMARKS
NORTH BEND     CLEAR     57  55  94 N7        30.14F
BROOKINGS      CLEAR     56  53  90 CALM      30.02F
ROSEBURG       CLEAR     71  49  45 N5        30.09F
SEXTON SUMMIT  CLEAR     56  41  57 N13       30.15F
MEDFORD        CLEAR     71  43  36 CALM      30.06S
$$

ORZ014>016-041-240800-
COLUMBIA GORGE


CITY           SKY/WX    TMP DP  RH WIND       PRES   REMARKS
TROUTDALE      CLEAR     63  55  75 CALM      30.14F
THE DALLES     CLEAR     68  52  56 NW12G25   30.06S
$$

ORZ029>031-041-044-049-050-061>064-502-503-505>511-240800-
EASTERN OREGON


CITY           SKY/WX    TMP DP  RH WIND       PRES   REMARKS
REDMOND        CLEAR     64  34  32 NW8       30.15S
BEND           CLEAR     63  39  42 NW6       30.16S
PRINEVILLE     CLEAR     61  41  48 SW5       30.15R
KLAMATH FALLS  CLEAR     61  48  62 CALM      30.14S
LAKEVIEW       CLEAR    N/A N/A N/A N13       30.18S
HERMISTON      CLEAR     64  41  42 S8        30.05R
PENDLETON      CLEAR     60  39  45 SE9       30.08S
JOHN DAY       CLEAR     63  37  38 N6        30.17S
MEACHAM        CLEAR     46  39  76 CALM      30.19S
LA GRANDE      CLEAR     57  36  44 N10       30.13S
BAKER CITY     CLEAR     55  41  59 CALM      30.16S
BURNS          CLEAR     54  29  38 SW6       30.16S
ROME             N/A     60  16  18 SW5       30.12S
ONTARIO        CLEAR     73  37  27 N7        30.05S
$$




USA.gov is the U.S. government's official web portal to all federal, state and local government web resources and services.